Location: lozzo di cadore
(46.4899°N, 12.4508°E)
Time: 01:36:45
(UTC+02:00)

Envisat - Visible Passes

Search period start: 30 April 2025 00:00
Search period end: 10 May 2025 00:00
Orbit: 761 x 763 km, 98.3° (Epoch: 28 April)

Date Brightness Start Highest point End Pass type
(mag) Time Alt. Az. Time Alt. Az. Time Alt. Az.
30 Apr 5.6 02:34:32 10° ENE 02:35:44 11° E 02:36:58 10° E visible
30 Apr 3.0 04:10:23 10° NNE 04:15:29 82° ESE 04:19:30 16° SSW visible
01 May 4.1 03:32:57 10° NNE 03:37:41 38° E 03:41:28 15° SSE visible
01 May 4.0 05:12:07 10° N 05:16:31 31° WNW 05:20:53 10° SW visible
02 May 5.2 02:56:14 10° NE 02:59:40 18° E 03:03:07 10° SE visible
02 May 3.1 04:34:02 10° N 04:39:03 63° WNW 04:43:34 13° SSW visible
03 May 3.4 03:56:21 10° NNE 04:01:23 62° ESE 04:05:32 15° S visible
04 May 4.6 03:19:07 10° NE 03:23:32 29° E 03:27:29 12° SSE visible
04 May 3.6 04:57:51 10° N 05:02:32 39° WNW 05:07:13 10° SW visible
05 May 5.4 02:42:57 10° ENE 02:45:25 14° E 02:47:54 10° ESE visible
05 May 3.0 04:19:55 10° NNE 04:25:01 82° WNW 04:29:35 13° SSW visible
06 May 3.8 03:42:23 10° NNE 03:47:16 46° E 03:51:32 13° S visible
07 May 5.0 03:05:24 10° NE 03:09:19 22° E 03:13:13 10° SE visible
07 May 3.3 04:43:38 10° N 04:48:33 51° WNW 04:53:26 10° SW visible
08 May 3.1 04:05:51 10° NNE 04:10:56 76° ESE 04:15:33 13° S visible
09 May 4.3 03:28:28 10° NNE 03:33:07 35° E 03:37:29 11° SSE visible
